Tracking 21992 objects as of 26-Nov-2020
HD Live streaming from Space Station
objects crossing your sky now

ZHUHAI-1 03C

Track ZHUHAI-1 03C now!
10-day predictions


NORAD ID: 44537
Int'l Code: 2019-060D
Perigee: 511.4 km
Apogee: 524.2 km
Inclination: 97.4 °
Period: 94.8 minutes
Semi major axis: 6888 km
RCS: Unknown
Launch date: September 19, 2019
Source: People's Republic of China (PRC)
Launch site: Jiuquan Satellite Launch Center, China (JSC)
aabbcc
Your satellite tracking list
Your tracking list is empty




NASA's NSSDC Master Catalog

Two Line Element Set (TLE):
1 44537U 19060D   20331.11633530  .00002037  00000-0  10222-3 0  9992
2 44537  97.4237  77.7974 0009228 251.0604 232.6734 15.18405102 65822
Source of the keplerian elements: AFSPC